Location: Roma
(41.9000°N, 12.4830°E)
Time: 19:29:15
(UTC+02:00)

ISS - Visible Passes

Search period start: 29 July 2021 00:00
Search period end: 08 August 2021 00:00
Orbit: 419 x 421 km, 51.6° (Epoch: 29 July)

Date Brightness Start Highest point End Pass type
(mag) Time Alt. Az. Time Alt. Az. Time Alt. Az.
29 Jul -2.7 21:37:19 10° NW 21:40:31 38° NNE 21:42:59 15° E visible
29 Jul -1.7 23:14:17 10° WNW 23:15:56 22° W 23:15:56 22° W visible
30 Jul -3.4 22:26:46 10° WNW 22:30:03 49° SW 22:30:18 48° SSW visible
31 Jul -3.8 21:39:23 10° NW 21:42:46 85° SW 21:44:44 23° SE visible
01 Aug -3.4 20:52:05 10° NW 20:55:26 59° NNE 20:58:45 10° ESE visible
01 Aug -1.6 22:29:38 10° W 22:31:56 17° SW 22:32:11 17° SW visible
02 Aug -2.3 21:41:48 10° WNW 21:44:46 28° SW 21:46:44 16° S visible
03 Aug -3.1 20:54:15 10° WNW 20:57:32 48° SW 21:00:48 10° SE visible
05 Aug -1.3 20:57:08 10° W 20:59:24 17° SW 21:01:40 10° S visible
